,,PressureMeas_1m,,PRMeasQMR101_1,,RHStat155_1m_1,,SRMeasQMS101R_1m,,TAStat155_1m_1,,GenWind_1,,GenWind_1,
2017-08-19, 07:00:06,VALID,916.469,VALID,0.0,VALID,90.1,VALID,33.209,VALID,20.962,VALID,114.0,VALID,1.275,
2017-08-19, 07:01:06,VALID,916.491,VALID,0.0,VALID,89.182,VALID,33.254,VALID,21.105,VALID,131.0,VALID,0.816,
2017-08-19, 07:02:06,VALID,916.499,VALID,0.0,VALID,88.692,VALID,35.142,VALID,21.207,VALID,156.0,VALID,0.922,
2017-08-19, 07:03:06,VALID,916.519,VALID,0.0,VALID,88.834,VALID,36.25,VALID,21.231,VALID,129.0,VALID,1.274,
2017-08-19, 07:04:06,VALID,916.535,VALID,0.0,VALID,89.177,VALID,38.802,VALID,21.199,VALID,137.0,VALID,0.881,
2017-08-19, 07:05:06,VALID,916.545,VALID,0.0,VALID,89.913,VALID,42.735,VALID,21.147,VALID,147.0,VALID,0.73,
2017-08-19, 07:06:06,VALID,916.571,VALID,0.0,VALID,90.448,VALID,47.445,VALID,21.111,VALID,118.0,VALID,0.951,
2017-08-19, 07:07:06,VALID,916.58,VALID,0.0,VALID,89.996,VALID,49.205,VALID,21.106,VALID,131.0,VALID,0.921,
2017-08-19, 07:08:06,VALID,916.61,VALID,0.0,VALID,89.846,VALID,51.819,VALID,21.141,VALID,115.0,VALID,2.074,
2017-08-19, 07:09:06,VALID,916.642,VALID,0.0,VALID,87.789,VALID,54.757,VALID,21.36,VALID,80.0,VALID,2.275,
2017-08-19, 07:10:06,VALID,916.668,VALID,0.0,VALID,87.175,VALID,46.855,VALID,21.523,VALID,70.0,VALID,1.378,
2017-08-19, 07:11:06,VALID,916.702,VALID,0.0,VALID,87.344,VALID,41.227,VALID,21.531,VALID,67.0,VALID,1.77,
2017-08-19, 07:12:06,VALID,916.721,VALID,0.0,VALID,87.455,VALID,38.163,VALID,21.503,VALID,52.0,VALID,2.184,
2017-08-19, 07:13:06,VALID,916.761,VALID,0.0,VALID,88.223,VALID,36.84,VALID,21.438,VALID,65.0,VALID,1.489,
2017-08-19, 07:14:06,VALID,916.774,VALID,0.0,VALID,88.02,VALID,33.445,VALID,21.393,VALID,96.0,VALID,1.192,
2017-08-19, 07:15:06,VALID,916.802,VALID,0.0,VALID,87.699,VALID,31.949,VALID,21.425,VALID,95.0,VALID,0.702,
2017-08-19, 07:16:06,VALID,916.824,VALID,0.0,VALID,88.165,VALID,35.952,VALID,21.437,VALID,83.0,VALID,0.417,
2017-08-19, 07:17:06,VALID,916.841,VALID,0.0,VALID,88.844,VALID,37.419,VALID,21.396,VALID,70.0,VALID,0.141,
2017-08-19, 07:18:06,VALID,916.862,VALID,0.0,VALID,88.799,VALID,34.463,VALID,21.365,VALID,59.0,VALID,0.34,
2017-08-19, 07:19:06,VALID,916.889,VALID,0.0,VALID,89.388,VALID,34.25,VALID,21.32,VALID,34.0,VALID,0.491,
2017-08-19, 07:20:06,VALID,916.902,VALID,0.0,VALID,88.394,VALID,40.342,VALID,21.34,VALID,50.0,VALID,0.336,
2017-08-19, 07:21:06,VALID,916.913,VALID,0.0,VALID,88.616,VALID,47.006,VALID,21.384,VALID,34.0,VALID,0.313,
2017-08-19, 07:22:06,VALID,916.927,VALID,0.0,VALID,88.749,VALID,45.221,VALID,21.407,VALID,32.0,VALID,1.005,
2017-08-19, 07:23:06,VALID,916.935,VALID,0.0,VALID,86.45,VALID,40.922,VALID,21.534,VALID,28.0,VALID,2.031,
2017-08-19, 07:24:06,VALID,916.982,VALID,0.0,VALID,86.217,VALID,36.893,VALID,21.746,VALID,60.0,VALID,1.399,
2017-08-19, 07:25:06,VALID,917.029,VALID,0.0,VALID,87.151,VALID,39.054,VALID,21.725,VALID,115.0,VALID,0.513,
2017-08-19, 07:26:06,VALID,917.06,VALID,0.0,VALID,88.942,VALID,45.408,VALID,21.652,VALID,124.0,VALID,0.255,
2017-08-19, 07:27:06,VALID,917.096,VALID,0.0,VALID,89.635,VALID,46.274,VALID,21.579,VALID,137.0,VALID,0.113,
2017-08-19, 07:28:06,VALID,917.129,VALID,0.0,VALID,90.582,VALID,45.266,VALID,21.549,VALID,138.0,VALID,0.101,
2017-08-19, 07:29:06,VALID,917.161,VALID,0.0,VALID,91.213,VALID,46.144,VALID,21.521,VALID,135.0,VALID,0.198,
2017-08-19, 07:30:06,VALID,917.206,VALID,0.0,VALID,91.916,VALID,46.367,VALID,21.5,VALID,122.0,VALID,0.201,
2017-08-19, 07:31:06,VALID,917.228,VALID,0.0,VALID,91.351,VALID,40.638,VALID,21.463,VALID,131.0,VALID,0.418,
2017-08-19, 07:32:06,VALID,917.26,VALID,0.0,VALID,88.42,VALID,33.586,VALID,21.521,VALID,101.0,VALID,1.055,
2017-08-19, 07:33:06,VALID,917.273,VALID,0.0,VALID,86.403,VALID,28.466,VALID,21.698,VALID,86.0,VALID,0.638,
2017-08-19, 07:34:06,VALID,917.296,VALID,0.0,VALID,85.86,VALID,26.368,VALID,21.801,VALID,82.0,VALID,0.82,
2017-08-19, 07:35:06,VALID,917.31,VALID,0.0,VALID,85.753,VALID,26.607,VALID,21.854,VALID,101.0,VALID,1.276,
2017-08-19, 07:36:06,VALID,917.325,VALID,0.0,VALID,84.855,VALID,30.475,VALID,21.929,VALID,84.0,VALID,1.689,
2017-08-19, 07:37:06,VALID,917.355,VALID,0.0,VALID,85.736,VALID,28.536,VALID,21.919,VALID,77.0,VALID,0.931,
2017-08-19, 07:38:06,VALID,917.361,VALID,0.0,VALID,86.959,VALID,25.938,VALID,21.833,VALID,65.0,VALID,0.628,
2017-08-19, 07:39:06,VALID,917.398,VALID,0.0,VALID,87.987,VALID,26.947,VALID,21.718,VALID,61.0,VALID,0.73,
2017-08-19, 07:40:06,VALID,917.407,VALID,0.0,VALID,87.54,VALID,29.031,VALID,21.626,VALID,100.0,VALID,0.793,
2017-08-19, 07:41:06,VALID,917.418,VALID,0.0,VALID,87.29,VALID,29.956,VALID,21.644,VALID,99.0,VALID,1.057,
2017-08-19, 07:42:06,VALID,917.423,VALID,0.0,VALID,87.05,VALID,30.016,VALID,21.665,VALID,89.0,VALID,2.216,
2017-08-19, 07:43:06,VALID,917.404,VALID,0.0,VALID,86.118,VALID,32.356,VALID,21.744,VALID,65.0,VALID,2.623,
2017-08-19, 07:44:06,VALID,917.426,VALID,0.0,VALID,85.284,VALID,30.898,VALID,21.89,VALID,126.0,VALID,3.557,
2017-08-19, 07:45:06,VALID,917.417,VALID,0.0,VALID,85.0,VALID,29.019,VALID,21.959,VALID,124.0,VALID,2.839,
2017-08-19, 07:46:06,VALID,917.4,VALID,0.0,VALID,84.392,VALID,27.051,VALID,21.99,VALID,85.0,VALID,2.2,
2017-08-19, 07:47:06,VALID,917.448,VALID,0.0,VALID,85.157,VALID,25.729,VALID,21.956,VALID,80.0,VALID,2.082,
2017-08-19, 07:48:06,VALID,917.459,VALID,0.0,VALID,86.704,VALID,27.938,VALID,21.775,VALID,103.0,VALID,2.441,
2017-08-19, 07:49:06,VALID,917.447,VALID,0.0,VALID,87.868,VALID,29.468,VALID,21.532,VALID,71.0,VALID,1.87,
2017-08-19, 07:50:06,VALID,917.445,VALID,0.0,VALID,89.055,VALID,32.178,VALID,21.403,VALID,42.0,VALID,1.535,
2017-08-19, 07:51:06,VALID,917.452,VALID,0.0,VALID,89.274,VALID,34.434,VALID,21.337,VALID,49.0,VALID,1.773,
2017-08-19, 07:52:06,VALID,917.436,VALID,0.0,VALID,88.516,VALID,37.113,VALID,21.385,VALID,90.0,VALID,2.824,
2017-08-19, 07:53:06,VALID,917.461,VALID,0.0,VALID,87.164,VALID,35.529,VALID,21.596,VALID,56.0,VALID,2.276,
2017-08-19, 07:54:06,VALID,917.502,VALID,0.0,VALID,86.696,VALID,34.025,VALID,21.692,VALID,77.0,VALID,2.619,
2017-08-19, 07:55:06,VALID,917.503,VALID,0.0,VALID,86.672,VALID,33.847,VALID,21.688,VALID,51.0,VALID,2.375,
2017-08-19, 07:56:06,VALID,917.527,VALID,0.0,VALID,87.071,VALID,34.697,VALID,21.666,VALID,49.0,VALID,1.859,
2017-08-19, 07:57:06,VALID,917.521,VALID,0.0,VALID,86.689,VALID,35.927,VALID,21.646,VALID,76.0,VALID,2.233,
2017-08-19, 07:58:06,VALID,917.497,VALID,0.0,VALID,86.253,VALID,34.525,VALID,21.725,VALID,70.0,VALID,3.119,
2017-08-19, 07:59:06,VALID,917.488,VALID,0.0,VALID,86.158,VALID,35.961,VALID,21.752,VALID,53.0,VALID,1.925,
2017-08-19, 08:00:06,VALID,917.484,VALID,0.0,VALID,86.861,VALID,41.265,VALID,21.684,VALID,57.0,VALID,3.588,
2017-08-19, 08:01:06,VALID,917.485,VALID,0.0,VALID,86.216,VALID,45.646,VALID,21.686,VALID,71.0,VALID,2.658,
2017-08-19, 08:02:06,VALID,917.46,VALID,0.0,VALID,85.941,VALID,48.623,VALID,21.756,VALID,70.0,VALID,3.195,
2017-08-19, 08:03:06,VALID,917.471,VALID,0.0,VALID,86.69,VALID,50.888,VALID,21.715,VALID,82.0,VALID,3.16,
2017-08-19, 08:04:06,VALID,917.446,VALID,0.0,VALID,86.61,VALID,52.421,VALID,21.674,VALID,55.0,VALID,3.886,
2017-08-19, 08:05:06,VALID,917.47,VALID,0.0,VALID,86.714,VALID,50.062,VALID,21.672,VALID,74.0,VALID,4.123,
2017-08-19, 08:06:06,VALID,917.494,VALID,0.0,VALID,86.321,VALID,43.387,VALID,21.728,VALID,67.0,VALID,3.109,
2017-08-19, 08:07:06,VALID,917.482,VALID,0.0,VALID,86.889,VALID,39.18,VALID,21.703,VALID,62.0,VALID,3.141,
2017-08-19, 08:08:06,VALID,917.516,VALID,0.0,VALID,86.706,VALID,38.078,VALID,21.683,VALID,67.0,VALID,2.729,
2017-08-19, 08:09:06,VALID,917.534,VALID,0.0,VALID,87.176,VALID,39.54,VALID,21.648,VALID,76.0,VALID,2.472,
2017-08-19, 08:10:06,VALID,917.534,VALID,0.0,VALID,87.472,VALID,38.24,VALID,21.593,VALID,73.0,VALID,3.315,
2017-08-19, 08:11:06,VALID,917.586,VALID,0.0,VALID,87.421,VALID,34.338,VALID,21.587,VALID,79.0,VALID,3.073,
2017-08-19, 08:12:06,VALID,917.583,VALID,0.0,VALID,87.881,VALID,31.076,VALID,21.545,VALID,80.0,VALID,3.729,
2017-08-19, 08:13:06,VALID,917.623,VALID,0.0,VALID,88.058,VALID,30.726,VALID,21.525,VALID,82.0,VALID,2.804,
2017-08-19, 08:14:06,VALID,917.63,VALID,0.0,VALID,88.019,VALID,32.211,VALID,21.51,VALID,75.0,VALID,3.616,
2017-08-19, 08:15:06,VALID,917.661,VALID,0.0,VALID,87.922,VALID,32.661,VALID,21.514,VALID,66.0,VALID,3.601,
2017-08-19, 08:16:06,VALID,917.631,VALID,0.0,VALID,87.971,VALID,31.743,VALID,21.51,VALID,73.0,VALID,3.967,
2017-08-19, 08:17:06,VALID,917.645,VALID,0.0,VALID,88.347,VALID,32.082,VALID,21.501,VALID,77.0,VALID,3.288,
2017-08-19, 08:18:06,VALID,917.681,VALID,0.0,VALID,88.475,VALID,34.351,VALID,21.455,VALID,81.0,VALID,3.22,
2017-08-19, 08:19:06,VALID,917.676,VALID,0.0,VALID,88.372,VALID,38.818,VALID,21.469,VALID,95.0,VALID,3.276,
2017-08-19, 08:20:06,VALID,917.699,VALID,0.0,VALID,88.853,VALID,46.057,VALID,21.449,VALID,77.0,VALID,2.691,
2017-08-19, 08:21:06,VALID,917.719,VALID,0.0,VALID,88.671,VALID,53.719,VALID,21.433,VALID,91.0,VALID,2.436,
2017-08-19, 08:22:06,VALID,917.734,VALID,0.0,VALID,89.048,VALID,57.762,VALID,21.413,VALID,99.0,VALID,2.388,
2017-08-19, 08:23:06,VALID,917.756,VALID,0.0,VALID,89.631,VALID,57.58,VALID,21.384,VALID,98.0,VALID,1.564,
2017-08-19, 08:24:06,VALID,917.777,VALID,0.0,VALID,89.818,VALID,54.855,VALID,21.327,VALID,102.0,VALID,1.957,
2017-08-19, 08:25:06,VALID,917.763,VALID,0.0,VALID,89.846,VALID,52.032,VALID,21.328,VALID,69.0,VALID,3.242,
2017-08-19, 08:26:06,VALID,917.79,VALID,0.0,VALID,89.323,VALID,52.358,VALID,21.369,VALID,92.0,VALID,2.73,
2017-08-19, 08:27:06,VALID,917.785,VALID,0.0,VALID,88.875,VALID,57.849,VALID,21.421,VALID,87.0,VALID,3.257,
2017-08-19, 08:28:06,VALID,917.801,VALID,0.0,VALID,88.517,VALID,64.042,VALID,21.492,VALID,95.0,VALID,2.757,
2017-08-19, 08:29:06,VALID,917.832,VALID,0.0,VALID,88.891,VALID,71.116,VALID,21.481,VALID,99.0,VALID,1.81,
2017-08-19, 08:30:06,VALID,917.825,VALID,0.0,VALID,89.33,VALID,92.28,VALID,21.448,VALID,99.0,VALID,2.692,
2017-08-19, 08:31:06,VALID,917.861,VALID,0.0,VALID,88.786,VALID,122.366,VALID,21.485,VALID,99.0,VALID,2.828,
2017-08-19, 08:32:06,VALID,917.869,VALID,0.0,VALID,88.111,VALID,137.986,VALID,21.556,VALID,98.0,VALID,2.809,
2017-08-19, 08:33:06,VALID,917.833,VALID,0.0,VALID,88.087,VALID,133.368,VALID,21.599,VALID,83.0,VALID,3.473,
2017-08-19, 08:34:06,VALID,917.884,VALID,0.0,VALID,88.844,VALID,115.996,VALID,21.603,VALID,100.0,VALID,2.38,
2017-08-19, 08:35:06,VALID,917.902,VALID,0.0,VALID,88.54,VALID,96.995,VALID,21.625,VALID,92.0,VALID,3.469,
2017-08-19, 08:36:06,VALID,917.894,VALID,0.0,VALID,88.208,VALID,89.727,VALID,21.666,VALID,73.0,VALID,3.117,
2017-08-19, 08:37:06,VALID,917.924,VALID,0.0,VALID,88.318,VALID,87.839,VALID,21.64,VALID,100.0,VALID,2.684,
2017-08-19, 08:38:06,VALID,917.938,VALID,0.0,VALID,88.212,VALID,87.073,VALID,21.625,VALID,66.0,VALID,2.835,
2017-08-19, 08:39:06,VALID,917.936,VALID,0.0,VALID,88.227,VALID,87.78,VALID,21.621,VALID,69.0,VALID,3.379,
2017-08-19, 08:40:06,VALID,917.913,VALID,0.0,VALID,87.595,VALID,90.042,VALID,21.664,VALID,63.0,VALID,4.255,
2017-08-19, 08:41:06,VALID,917.941,VALID,0.0,VALID,87.79,VALID,91.593,VALID,21.666,VALID,75.0,VALID,4.04,
2017-08-19, 08:42:06,VALID,917.998,VALID,0.0,VALID,87.964,VALID,91.362,VALID,21.627,VALID,89.0,VALID,4.017,
2017-08-19, 08:43:06,VALID,917.98,VALID,0.0,VALID,88.008,VALID,99.534,VALID,21.614,VALID,67.0,VALID,3.908,
2017-08-19, 08:44:06,VALID,918.013,VALID,0.0,VALID,88.308,VALID,118.787,VALID,21.585,VALID,71.0,VALID,2.703,
2017-08-19, 08:45:06,VALID,918.026,VALID,0.0,VALID,88.905,VALID,136.537,VALID,21.565,VALID,70.0,VALID,2.507,
2017-08-19, 08:46:06,VALID,918.0,VALID,0.0,VALID,88.836,VALID,148.686,VALID,21.58,VALID,54.0,VALID,3.097,
2017-08-19, 08:47:06,VALID,918.004,VALID,0.0,VALID,88.946,VALID,155.703,VALID,21.59,VALID,51.0,VALID,2.584,
2017-08-19, 08:48:06,VALID,918.013,VALID,0.0,VALID,89.422,VALID,158.986,VALID,21.567,VALID,85.0,VALID,1.981,
2017-08-19, 08:49:06,VALID,918.011,VALID,0.0,VALID,89.549,VALID,162.38,VALID,21.534,VALID,89.0,VALID,1.514,
2017-08-19, 08:50:06,VALID,917.994,VALID,0.0,VALID,89.975,VALID,169.804,VALID,21.52,VALID,71.0,VALID,1.511,
2017-08-19, 08:51:06,VALID,917.986,VALID,0.0,VALID,90.608,VALID,177.597,VALID,21.538,VALID,91.0,VALID,1.521,
2017-08-19, 08:52:06,VALID,917.978,VALID,0.0,VALID,90.567,VALID,181.569,VALID,21.574,VALID,115.0,VALID,2.056,
2017-08-19, 08:53:06,VALID,917.958,VALID,0.0,VALID,90.108,VALID,185.661,VALID,21.605,VALID,116.0,VALID,3.166,
2017-08-19, 08:54:06,VALID,917.955,VALID,0.0,VALID,89.325,VALID,193.239,VALID,21.609,VALID,110.0,VALID,2.433,
2017-08-19, 08:55:06,VALID,917.947,VALID,0.0,VALID,89.951,VALID,198.466,VALID,21.612,VALID,96.0,VALID,2.909,
2017-08-19, 08:56:06,VALID,917.955,VALID,0.0,VALID,90.293,VALID,203.573,VALID,21.59,VALID,127.0,VALID,1.353,
2017-08-19, 08:57:06,VALID,917.927,VALID,0.0,VALID,90.659,VALID,201.514,VALID,21.595,VALID,159.0,VALID,1.493,
2017-08-19, 08:58:06,VALID,917.935,VALID,0.0,VALID,89.914,VALID,205.244,VALID,21.581,VALID,149.0,VALID,1.481,
2017-08-19, 08:59:06,VALID,917.89,VALID,0.0,VALID,91.126,VALID,204.059,VALID,21.585,VALID,153.0,VALID,0.946,
2017-08-19, 09:00:06,VALID,917.854,VALID,0.0,VALID,91.366,VALID,197.034,VALID,21.621,VALID,140.0,VALID,0.375,
2017-08-19, 09:01:06,VALID,917.817,VALID,0.0,VALID,90.493,VALID,190.045,VALID,21.664,VALID,186.0,VALID,0.731,
2017-08-19, 09:02:06,VALID,917.808,VALID,0.0,VALID,90.986,VALID,188.464,VALID,21.721,VALID,154.0,VALID,0.421,
2017-08-19, 09:03:06,VALID,917.811,VALID,0.0,VALID,90.947,VALID,194.256,VALID,21.757,VALID,141.0,VALID,1.269,
2017-08-19, 09:04:06,VALID,917.831,VALID,0.0,VALID,90.981,VALID,204.707,VALID,21.746,VALID,137.0,VALID,1.327,
2017-08-19, 09:05:06,VALID,917.846,VALID,0.0,VALID,89.809,VALID,225.632,VALID,21.716,VALID,135.0,VALID,1.711,
2017-08-19, 09:06:06,VALID,917.846,VALID,0.0,VALID,90.044,VALID,267.95,VALID,21.698,VALID,166.0,VALID,1.165,
2017-08-19, 09:07:06,VALID,917.85,VALID,0.0,VALID,90.878,VALID,463.747,VALID,21.741,VALID,120.0,VALID,1.048,
2017-08-19, 09:08:06,VALID,917.831,VALID,0.0,VALID,91.21,VALID,754.139,VALID,21.893,VALID,57.0,VALID,2.055,
2017-08-19, 09:09:06,VALID,917.862,VALID,0.0,VALID,90.338,VALID,634.103,VALID,22.076,VALID,91.0,VALID,2.147,
2017-08-19, 09:10:06,VALID,917.869,VALID,0.0,VALID,88.335,VALID,498.161,VALID,22.099,VALID,99.0,VALID,3.621,
2017-08-19, 09:11:06,VALID,917.87,VALID,0.0,VALID,88.238,VALID,367.12,VALID,21.997,VALID,118.0,VALID,3.114,
2017-08-19, 09:12:06,VALID,917.896,VALID,0.0,VALID,90.612,VALID,416.185,VALID,22.088,VALID,61.0,VALID,1.924,
2017-08-19, 09:13:06,VALID,917.907,VALID,0.0,VALID,90.217,VALID,594.238,VALID,22.245,VALID,90.0,VALID,2.492,
2017-08-19, 09:14:06,VALID,917.89,VALID,0.0,VALID,89.071,VALID,735.145,VALID,22.417,VALID,43.0,VALID,2.68,
2017-08-19, 09:15:06,VALID,917.915,VALID,0.0,VALID,87.627,VALID,362.731,VALID,22.523,VALID,80.0,VALID,3.045,
2017-08-19, 09:16:06,VALID,917.924,VALID,0.0,VALID,87.161,VALID,406.141,VALID,22.492,VALID,80.0,VALID,2.269,
2017-08-19, 09:17:06,VALID,917.913,VALID,0.0,VALID,88.203,VALID,684.462,VALID,22.501,VALID,79.0,VALID,2.315,
2017-08-19, 09:18:06,VALID,917.973,VALID,0.0,VALID,88.716,VALID,809.703,VALID,22.684,VALID,75.0,VALID,1.862,
2017-08-19, 09:19:06,VALID,917.969,VALID,0.0,VALID,86.958,VALID,655.841,VALID,22.906,VALID,53.0,VALID,3.18,
2017-08-19, 09:20:06,VALID,917.995,VALID,0.0,VALID,85.941,VALID,718.053,VALID,23.029,VALID,57.0,VALID,3.531,
2017-08-19, 09:21:06,VALID,918.022,VALID,0.0,VALID,84.841,VALID,859.931,VALID,23.074,VALID,74.0,VALID,2.623,
2017-08-19, 09:22:06,VALID,918.041,VALID,0.0,VALID,85.529,VALID,849.639,VALID,23.182,VALID,85.0,VALID,1.768,
2017-08-19, 09:23:06,VALID,918.033,VALID,0.0,VALID,85.871,VALID,819.162,VALID,23.427,VALID,85.0,VALID,1.903,
2017-08-19, 09:24:06,VALID,918.035,VALID,0.0,VALID,85.689,VALID,403.681,VALID,23.678,VALID,70.0,VALID,2.408,
2017-08-19, 09:25:06,VALID,918.048,VALID,0.0,VALID,83.223,VALID,355.112,VALID,23.616,VALID,71.0,VALID,2.213,
2017-08-19, 09:26:06,VALID,918.029,VALID,0.0,VALID,83.048,VALID,524.654,VALID,23.42,VALID,56.0,VALID,1.651,
2017-08-19, 09:27:06,VALID,918.016,VALID,0.0,VALID,83.654,VALID,369.187,VALID,23.264,VALID,55.0,VALID,2.975,
2017-08-19, 09:28:06,VALID,918.017,VALID,0.0,VALID,83.829,VALID,314.66,VALID,23.105,VALID,66.0,VALID,1.98,
2017-08-19, 09:29:06,VALID,918.03,VALID,0.0,VALID,86.754,VALID,339.21,VALID,23.143,VALID,105.0,VALID,1.002,
2017-08-19, 09:30:06,VALID,918.025,VALID,0.0,VALID,85.238,VALID,458.772,VALID,23.292,VALID,59.0,VALID,2.188,
2017-08-19, 09:31:06,VALID,918.041,VALID,0.0,VALID,81.802,VALID,446.179,VALID,23.244,VALID,64.0,VALID,1.502,
2017-08-19, 09:32:06,VALID,918.043,VALID,0.0,VALID,81.569,VALID,530.327,VALID,23.162,VALID,133.0,VALID,1.723,
2017-08-19, 09:33:06,VALID,918.042,VALID,0.0,VALID,83.174,VALID,893.819,VALID,23.226,VALID,93.0,VALID,2.702,
2017-08-19, 09:34:06,VALID,918.023,VALID,0.0,VALID,83.145,VALID,825.437,VALID,23.306,VALID,78.0,VALID,2.629,
2017-08-19, 09:35:06,VALID,917.997,VALID,0.0,VALID,82.488,VALID,884.426,VALID,23.52,VALID,47.0,VALID,2.835,
2017-08-19, 09:36:06,VALID,918.001,VALID,0.0,VALID,81.997,VALID,804.476,VALID,23.743,VALID,56.0,VALID,3.275,
2017-08-19, 09:37:06,VALID,918.027,VALID,0.0,VALID,80.379,VALID,826.955,VALID,23.805,VALID,93.0,VALID,1.648,
2017-08-19, 09:38:06,VALID,918.01,VALID,0.0,VALID,83.664,VALID,461.212,VALID,24.053,VALID,109.0,VALID,0.661,
2017-08-19, 09:39:06,VALID,918.01,VALID,0.0,VALID,79.647,VALID,314.152,VALID,24.204,VALID,106.0,VALID,2.291,
2017-08-19, 09:40:06,VALID,918.004,VALID,0.0,VALID,78.832,VALID,253.791,VALID,23.736,VALID,107.0,VALID,3.137,
2017-08-19, 09:41:06,VALID,918.016,VALID,0.0,VALID,82.019,VALID,266.257,VALID,23.379,VALID,138.0,VALID,1.316,
2017-08-19, 09:42:06,VALID,918.032,VALID,0.0,VALID,83.078,VALID,229.369,VALID,23.387,VALID,95.0,VALID,2.697,
2017-08-19, 09:43:06,VALID,918.039,VALID,0.0,VALID,82.392,VALID,190.035,VALID,23.278,VALID,125.0,VALID,2.487,
2017-08-19, 09:44:06,VALID,918.013,VALID,0.0,VALID,82.791,VALID,178.075,VALID,23.101,VALID,149.0,VALID,1.732,
2017-08-19, 09:45:06,VALID,918.012,VALID,0.0,VALID,83.019,VALID,176.327,VALID,23.062,VALID,154.0,VALID,1.607,
2017-08-19, 09:46:06,VALID,918.033,VALID,0.0,VALID,83.875,VALID,207.811,VALID,23.079,VALID,125.0,VALID,1.94,
2017-08-19, 09:47:06,VALID,918.033,VALID,0.0,VALID,85.117,VALID,260.562,VALID,23.128,VALID,121.0,VALID,1.582,
2017-08-19, 09:48:06,VALID,918.016,VALID,0.0,VALID,83.757,VALID,355.333,VALID,23.097,VALID,96.0,VALID,1.482,
2017-08-19, 09:49:06,VALID,917.999,VALID,0.0,VALID,83.575,VALID,571.832,VALID,23.096,VALID,98.0,VALID,1.614,
2017-08-19, 09:50:06,VALID,917.961,VALID,0.0,VALID,84.498,VALID,678.686,VALID,23.211,VALID,108.0,VALID,0.789,
2017-08-19, 09:51:06,VALID,917.95,VALID,0.0,VALID,83.971,VALID,787.607,VALID,23.575,VALID,54.0,VALID,1.989,
2017-08-19, 09:52:06,VALID,917.915,VALID,0.0,VALID,79.64,VALID,985.914,VALID,23.853,VALID,63.0,VALID,3.341,
2017-08-19, 09:53:06,VALID,917.971,VALID,0.0,VALID,79.433,VALID,797.479,VALID,23.943,VALID,102.0,VALID,2.554,
2017-08-19, 09:54:06,VALID,917.946,VALID,0.0,VALID,79.972,VALID,613.97,VALID,23.965,VALID,89.0,VALID,2.035,
2017-08-19, 09:55:06,VALID,917.955,VALID,0.0,VALID,80.501,VALID,523.326,VALID,23.947,VALID,131.0,VALID,1.275,
2017-08-19, 09:56:06,VALID,917.984,VALID,0.0,VALID,80.246,VALID,480.184,VALID,23.892,VALID,139.0,VALID,1.571,
2017-08-19, 09:57:06,VALID,918.009,VALID,0.0,VALID,80.83,VALID,421.152,VALID,23.899,VALID,118.0,VALID,1.441,
2017-08-19, 09:58:06,VALID,918.02,VALID,0.0,VALID,83.024,VALID,335.152,VALID,23.926,VALID,112.0,VALID,1.912,
2017-08-19, 09:59:06,VALID,918.038,VALID,0.0,VALID,80.395,VALID,270.041,VALID,23.813,VALID,141.0,VALID,2.795,
2017-08-19, 10:00:06,VALID,918.061,VALID,0.0,VALID,81.572,VALID,277.861,VALID,23.562,VALID,126.0,VALID,2.88,
2017-08-19, 10:01:06,VALID,918.055,VALID,0.0,VALID,82.647,VALID,295.466,VALID,23.434,VALID,151.0,VALID,3.182,
2017-08-19, 10:02:06,VALID,918.064,VALID,0.0,VALID,82.584,VALID,344.1,VALID,23.343,VALID,145.0,VALID,2.222,
2017-08-19, 10:03:06,VALID,918.033,VALID,0.0,VALID,82.847,VALID,393.32,VALID,23.3,VALID,127.0,VALID,2.413,
2017-08-19, 10:04:06,VALID,918.047,VALID,0.0,VALID,83.211,VALID,451.244,VALID,23.303,VALID,121.0,VALID,2.734,
2017-08-19, 10:05:06,VALID,918.038,VALID,0.0,VALID,81.323,VALID,391.747,VALID,23.347,VALID,114.0,VALID,3.046,
2017-08-19, 10:06:06,VALID,918.009,VALID,0.0,VALID,82.877,VALID,353.784,VALID,23.478,VALID,88.0,VALID,2.032,
2017-08-19, 10:07:06,VALID,918.011,VALID,0.0,VALID,81.862,VALID,633.76,VALID,23.564,VALID,106.0,VALID,2.098,
2017-08-19, 10:08:06,VALID,918.022,VALID,0.0,VALID,81.182,VALID,864.706,VALID,23.656,VALID,113.0,VALID,3.048,
2017-08-19, 10:09:06,VALID,917.977,VALID,0.0,VALID,78.973,VALID,900.296,VALID,23.686,VALID,117.0,VALID,2.226,
2017-08-19, 10:10:06,VALID,917.966,VALID,0.0,VALID,81.046,VALID,665.057,VALID,23.761,VALID,108.0,VALID,2.306,
2017-08-19, 10:11:06,VALID,917.951,VALID,0.0,VALID,79.862,VALID,858.962,VALID,24.042,VALID,135.0,VALID,1.804,
2017-08-19, 10:12:06,VALID,917.944,VALID,0.0,VALID,80.04,VALID,655.707,VALID,24.297,VALID,141.0,VALID,2.18,
2017-08-19, 10:13:06,VALID,917.939,VALID,0.0,VALID,78.286,VALID,871.925,VALID,24.326,VALID,127.0,VALID,2.908,
2017-08-19, 10:14:06,VALID,917.936,VALID,0.0,VALID,78.897,VALID,612.989,VALID,24.2,VALID,149.0,VALID,3.761,
2017-08-19, 10:15:06,VALID,917.914,VALID,0.0,VALID,78.967,VALID,734.743,VALID,24.007,VALID,105.0,VALID,2.759,
2017-08-19, 10:16:06,VALID,917.915,VALID,0.0,VALID,79.566,VALID,781.269,VALID,23.95,VALID,99.0,VALID,3.489,
2017-08-19, 10:17:06,VALID,917.904,VALID,0.0,VALID,79.541,VALID,840.924,VALID,23.886,VALID,96.0,VALID,4.724,
2017-08-19, 10:18:06,VALID,917.838,VALID,0.0,VALID,78.792,VALID,879.579,VALID,23.598,VALID,95.0,VALID,3.913,
2017-08-19, 10:19:06,VALID,917.823,VALID,0.0,VALID,80.183,VALID,810.137,VALID,23.548,VALID,123.0,VALID,2.468,
2017-08-19, 10:20:06,VALID,917.763,VALID,0.0,VALID,81.412,VALID,649.447,VALID,23.731,VALID,94.0,VALID,4.254,
2017-08-19, 10:21:06,VALID,917.76,VALID,0.0,VALID,81.428,VALID,907.695,VALID,23.785,VALID,95.0,VALID,2.086,
2017-08-19, 10:22:06,VALID,917.753,VALID,0.0,VALID,82.841,VALID,573.704,VALID,24.0,VALID,134.0,VALID,1.865,
2017-08-19, 10:23:06,VALID,917.717,VALID,0.0,VALID,80.03,VALID,477.768,VALID,24.077,VALID,163.0,VALID,3.212,
2017-08-19, 10:24:06,VALID,917.711,VALID,0.0,VALID,79.738,VALID,505.42,VALID,23.874,VALID,143.0,VALID,3.79,
2017-08-19, 10:25:06,VALID,917.735,VALID,0.0,VALID,81.151,VALID,506.253,VALID,23.711,VALID,124.0,VALID,2.52,
2017-08-19, 10:26:06,VALID,917.721,VALID,0.0,VALID,81.052,VALID,488.68,VALID,23.704,VALID,150.0,VALID,2.768,
2017-08-19, 10:27:06,VALID,917.714,VALID,0.0,VALID,81.406,VALID,637.158,VALID,23.695,VALID,102.0,VALID,2.901,
2017-08-19, 10:28:06,VALID,917.703,VALID,0.0,VALID,81.375,VALID,756.567,VALID,23.851,VALID,108.0,VALID,2.756,
2017-08-19, 10:29:06,VALID,917.655,VALID,0.0,VALID,79.763,VALID,585.345,VALID,23.856,VALID,62.0,VALID,4.696,
2017-08-19, 10:30:06,VALID,917.699,VALID,0.0,VALID,80.491,VALID,553.923,VALID,23.782,VALID,93.0,VALID,2.974,
2017-08-19, 10:31:06,VALID,917.755,VALID,0.0,VALID,82.719,VALID,471.218,VALID,23.878,VALID,108.0,VALID,3.608,
2017-08-19, 10:32:06,VALID,917.762,VALID,0.0,VALID,79.359,VALID,428.163,VALID,23.903,VALID,95.0,VALID,4.319,
2017-08-19, 10:33:06,VALID,917.764,VALID,0.0,VALID,79.499,VALID,414.305,VALID,23.69,VALID,96.0,VALID,3.446,
2017-08-19, 10:34:06,VALID,917.762,VALID,0.0,VALID,80.246,VALID,411.283,VALID,23.677,VALID,121.0,VALID,3.68,
2017-08-19, 10:35:06,VALID,917.797,VALID,0.0,VALID,80.464,VALID,419.794,VALID,23.747,VALID,102.0,VALID,3.571,
2017-08-19, 10:36:06,VALID,917.784,VALID,0.0,VALID,79.844,VALID,383.894,VALID,23.616,VALID,115.0,VALID,2.171,
2017-08-19, 10:37:06,VALID,917.79,VALID,0.0,VALID,80.775,VALID,355.45,VALID,23.675,VALID,106.0,VALID,3.271,